TimeMST,TemperatureF,Dew PointF,Humidity,Sea Level PressureIn,VisibilityMPH,Wind Direction,Wind SpeedMPH,Gust SpeedMPH,PrecipitationIn,Events,Conditions,WindDirDegrees,DateUTC
12:53 AM,-7.1,-11.0,83,30.81,10.0,Calm,Calm,-,N/A,,Clear,0,2013-01-17 07:53:00
1:53 AM,-6.0,-11.0,79,30.78,10.0,Calm,Calm,-,N/A,,Clear,0,2013-01-17 08:53:00
2:53 AM,-9.9,-13.0,86,30.81,10.0,Calm,Calm,-,N/A,,Clear,0,2013-01-17 09:53:00
3:53 AM,-9.0,-13.0,83,30.79,10.0,Calm,Calm,-,N/A,,Clear,0,2013-01-17 10:53:00
5:53 AM,-11.9,-15.0,86,30.88,10.0,Calm,Calm,-,N/A,,Clear,0,2013-01-17 12:53:00
6:53 AM,-13.0,-16.1,86,30.92,10.0,Calm,Calm,-,N/A,,Clear,0,2013-01-17 13:53:00
7:53 AM,-11.9,-16.1,82,30.94,10.0,Calm,Calm,-,N/A,,Clear,0,2013-01-17 14:53:00
8:53 AM,-4.0,-6.0,91,30.93,10.0,Calm,Calm,-,N/A,,Clear,0,2013-01-17 15:53:00
9:53 AM,-2.0,-2.0,100,30.95,10.0,Calm,Calm,-,N/A,,Clear,0,2013-01-17 16:53:00
10:53 AM,3.0,-0.0,87,30.90,10.0,Calm,Calm,-,N/A,,Clear,0,2013-01-17 17:53:00
11:53 AM,9.0,1.9,73,30.85,10.0,Calm,Calm,-,N/A,,Clear,0,2013-01-17 18:53:00
12:53 PM,12.9,3.9,67,30.79,10.0,Calm,Calm,-,N/A,,Clear,0,2013-01-17 19:53:00
1:53 PM,16.0,6.1,65,30.75,9.0,NNE,3.5,-,0.00,Snow,Light Snow,20,2013-01-17 20:53:00
2:53 PM,18.0,6.1,60,30.75,10.0,Calm,Calm,-,N/A,,Clear,0,2013-01-17 21:53:00
3:53 PM,17.1,7.0,65,30.74,10.0,Calm,Calm,-,N/A,,Clear,0,2013-01-17 22:53:00
4:53 PM,12.9,3.9,67,30.77,10.0,Calm,Calm,-,N/A,,Clear,0,2013-01-17 23:53:00
5:53 PM,3.0,-2.9,76,30.84,10.0,Calm,Calm,-,N/A,,Clear,0,2013-01-18 00:53:00
6:53 PM,-0.9,-5.1,83,30.87,10.0,Calm,Calm,-,N/A,,Clear,0,2013-01-18 01:53:00
7:53 PM,-2.0,-6.0,83,30.87,10.0,Calm,Calm,-,N/A,,Clear,0,2013-01-18 02:53:00
8:53 PM,-5.1,-9.0,83,30.84,10.0,Calm,Calm,-,N/A,,Clear,0,2013-01-18 03:53:00
9:53 PM,-4.0,-8.0,83,30.83,10.0,Calm,Calm,-,N/A,,Clear,0,2013-01-18 04:53:00
10:53 PM,-5.1,-9.0,83,30.79,10.0,Calm,Calm,-,N/A,,Clear,0,2013-01-18 05:53:00
11:53 PM,-6.0,-9.9,83,30.75,10.0,Calm,Calm,-,N/A,,Clear,0,2013-01-18 06:53:00